Location: Clatteringshaws Loch
(55.0508°N, 4.2860°W)
Time: 06:01:06
(UTC+00:00)

ALOS - Visible Passes

Search period start: 11 December 2017 00:00
Search period end: 21 December 2017 00:00
Orbit: 683 x 687 km, 97.8° (Epoch: 10 December)

Date Brightness Start Highest point End Pass type
(mag) Time Alt. Az. Time Alt. Az. Time Alt. Az.
11 Dec 3.4 07:17:14 10° NNE 07:21:48 48° E 07:26:19 10° S visible
11 Dec 3.5 16:52:01 10° ESE 16:55:25 20° NE 16:58:51 10° N visible
11 Dec 2.3 18:27:41 10° SSE 18:32:21 81° WSW 18:37:05 10° NNW visible
11 Dec 5.2 20:08:09 10° WSW 20:10:36 14° W 20:13:03 10° NW visible
12 Dec 5.2 06:18:14 10° NE 06:21:15 17° E 06:24:15 10° SE visible
12 Dec 2.8 17:28:17 10° SE 17:32:32 36° ENE 17:36:48 10° N visible
12 Dec 3.5 19:05:34 10° SSW 19:09:58 40° W 19:14:24 10° NNW visible
13 Dec 4.2 06:54:54 10° NNE 06:59:07 32° E 07:03:19 10° SSE visible
13 Dec 3.8 16:30:35 10° E 16:33:10 15° NE 16:35:47 10° NNE visible
13 Dec 2.1 18:05:12 10° SSE 18:09:50 69° ENE 18:14:31 10° N visible
13 Dec 4.7 19:44:15 10° SW 19:47:46 21° W 19:51:18 10° NW visible
14 Dec 5.6 05:57:05 10° ENE 05:58:23 11° E 05:59:40 10° E visible
14 Dec 2.8 07:32:06 10° NNE 07:36:47 64° ESE 07:41:26 10° S visible
14 Dec 3.2 17:06:23 10° ESE 17:10:11 25° ENE 17:14:01 10° N visible
14 Dec 2.7 18:42:42 10° S 18:47:19 61° WSW 18:51:59 10° NNW visible
14 Dec 5.5 20:25:03 10° W 20:25:47 10° W 20:26:30 10° WNW visible
15 Dec 4.9 06:32:44 10° NE 06:36:22 22° E 06:40:00 10° SE visible
15 Dec 2.5 17:42:56 10° SE 17:47:23 46° ENE 17:51:52 10° N visible
15 Dec 4.1 19:20:53 10° SSW 19:25:00 31° W 19:29:10 10° NNW visible
16 Dec 3.7 07:09:41 10° NNE 07:14:09 42° E 07:18:36 10° S visible
16 Dec 3.6 16:44:43 10° E 16:47:54 19° NE 16:51:06 10° N visible
16 Dec 2.2 18:20:05 10° SSE 18:24:45 90° E 18:29:28 10° NNW visible
16 Dec 5.1 20:00:02 10° WSW 20:02:53 16° W 20:05:45 10° NW visible
17 Dec 5.3 06:10:54 10° NE 06:13:33 15° E 06:16:12 10° ESE visible
17 Dec 2.4 07:47:01 10° NNE 07:51:44 85° ESE 07:56:26 10° SSW visible
17 Dec 2.9 17:20:52 10° SE 17:24:59 32° ENE 17:29:08 10° N visible
17 Dec 3.3 18:57:50 10° S 19:02:19 45° W 19:06:51 10° NNW visible
18 Dec 4.4 06:47:23 10° NNE 06:51:28 29° E 06:55:30 10° SSE visible
18 Dec 2.2 17:57:39 10° SSE 18:02:15 61° ENE 18:06:53 10° N visible
18 Dec 4.5 19:36:21 10° SW 19:40:05 23° W 19:43:51 10° NW visible
19 Dec 3.1 07:24:31 10° NNE 07:29:10 57° E 07:33:45 10° S visible
19 Dec 3.3 16:59:00 10° ESE 17:02:39 23° ENE 17:06:19 10° N visible
19 Dec 2.5 18:35:03 10° S 18:39:42 69° WSW 18:44:24 10° NNW visible
19 Dec 5.4 20:16:18 10° WSW 20:18:03 12° W 20:19:48 10° WNW visible
20 Dec 5.1 06:25:18 10° NE 06:28:41 19° E 06:32:04 10° SE visible
20 Dec 2.6 17:35:26 10° SE 17:39:49 41° ENE 17:44:12 10° N visible
20 Dec 3.8 19:13:05 10° SSW 19:17:20 34° W 19:21:38 10° NNW visible
